Regional Weather Roundup
Issued by NWS Wakefield, VA

Home | Current Version | Previous Version | Graphics & Text | Print | Product List | Glossary On
Versions: 1 2 3 4 5 6 7 8 9 10 11 12 13 14 15 16 17 18 19 20 21 22 23 24 25 26 27
000
ASUS41 KAKQ 232315
RWRAKQ

REGIONAL WEATHER ROUNDUP
NATIONAL WEATHER SERVICE WAKEFIELD VA
700 PM EDT THU MAR 23 2017

Note: "fair" indicates few or no clouds below 12,000 feet with no
significant weather and/or obstructions to visibility. * = Denotes
station may not report precipitation (e.g., rain,snow,etc.),
thunder or fog.

VAZ042-051-052>054-056-240000-
NORTHERN VIRGINIA

CITY           SKY/WX    TMP DP  RH WIND       PRES   REMARKS
WASH NATIONAL  PTCLDY    46  12  25 S8        30.53S
DULLES         PTCLDY    47   8  20 S5        30.50S
FORT BELVOIR   CLEAR     46  10  23 SE5       30.52S
QUANTICO       CLEAR     46  26  45 SE12      30.54S
FREDERICKSBRG* CLEAR     50  15  25 S3        30.52R
STAFFORD*      CLEAR     46  15  28 SE5       30.56R
WARRENTON      CLEAR     48   1  14 S5        30.50S
CULPEPER*      CLEAR     49  14  24 S6        30.52S
MANASSAS*      CLEAR     47  11  23 E7        30.51S
LEESBURG*      CLEAR     48  14  25 S10       30.50S
WINCHESTER     CLEAR     45  14  29 SE6       30.46S
FRONT ROYAL*   CLEAR     46  16  29 S9        30.45R
LURAY*         CLEAR     50  19  29 S8        30.45S
$$

VAZ048-049-060>072-079>083-240000-
CENTRAL AND SOUTH CENTRAL VIRGINIA

CITY           SKY/WX    TMP DP  RH WIND       PRES   REMARKS
RICHMOND       CLEAR     47  12  24 S6        30.53F
CHESTERFIELD*  FAIR      48  10  21 S6        30.55S
PETERSBURG*    CLEAR     47  12  23 CALM      30.54S
HANOVER        CLEAR     48  10  21 S3        30.54S
TAPPAHANNOCK*  CLEAR     45  -5  12 E6        30.54S
QUINTON*       FAIR      48  10  21 S5        30.54S
CHARLOTTSVILLE CLEAR     49  13  23 S8        30.48F
GORDONSVILLE*  CLEAR     48  16  27 S3        30.49F
ORANGE*        CLEAR     48  12  23 SW7       30.51S
LOUISA*        CLEAR     52  18  25 CALM      30.49F
BUMPASS*       FAIR      47  12  23 S3        30.52R
FARMVILLE*     CLEAR     50  18  28 S5        30.49F
CREWE*         FAIR      48  16  27 CALM      30.51S
FORT PICKETT*  FAIR      48   2  14 SE3       30.52R
CHASE CITY*    FAIR      50  12  22 SE3       30.51S
CLARKSVILLE*   FAIR      50  19  29 E5        30.50F
SOUTH HILL*    CLEAR     49  16  27 S3        30.58S
LAWRENCEVILLE* FAIR      48  16  27 SE3       30.53S
EMPORIA*       CLEAR     48  18  29 SE3       30.56S
$$

VAZ088>098-240000-
SOUTHEAST VIRGINIA

CITY           SKY/WX    TMP DP  RH WIND       PRES   REMARKS
NORFOLK        CLEAR     40  23  50 E8        30.58R
VIRGINIA BEACH CLEAR     37  19  48 E6        30.58S
NORFOLK NAVAL  CLEAR     39  23  52 E6        30.59S
WEST POINT*    CLEAR     43  19  37 SE7       30.57S
SALUDA*        FAIR      38  12  34 SE3       30.57S
NEWPORT NEWS   CLEAR     40  19  43 E7        30.57S
LANGLEY AFB    CLEAR     40  19  43 E6        30.57S
FORT EUSTIS    CLEAR     45  20  37 S7        30.54S
WILLIAMSBURG*  CLEAR     45  23  42 CALM      30.57S
HR EXEC AP*    FAIR      45  16  31 E5        30.55F
FRANKLIN*      CLEAR     46  12  26 E5        30.57S
US460-WAKEFLD  CLEAR     46  18  32 E7        30.55S
$$

VAZ020-022-025-037-045-240000-
WEST CENTRAL AND SOUTHWEST VIRGINIA

CITY           SKY/WX    TMP DP  RH WIND       PRES   REMARKS
STAUNTON*      CLEAR     47  14  27 S7        30.46F
WAYNESBORO*    CLEAR     46  14  27 S6        30.45S
HOT SPRINGS VA CLEAR     37   5  25 S7        30.39S
LYNCHBURG      CLEAR     48  17  29 S9        30.49F
DANVILLE       CLEAR     53  19  26 SW5       30.49S
SOUTH BOSTON*  FAIR      51  14  22 E7        30.50S
MARTINSVILLE   CLEAR     52  16  24 S5        30.48F
ROANOKE        CLEAR     50  15  24 E13       30.47S
BLACKSBURG     CLEAR     51  19  28 SE9       30.44F
DUBLIN*        CLEAR     52  19  27 S10       30.42S
MARION*        CLEAR     54  19  25 SE7       30.39S
HILLSVILLE*    CLEAR     46  21  37 S5        30.40F
RICHLANDS*     FAIR      58  27  30 CALM      30.33F
WISE*          CLEAR     59  25  27 CALM      30.34S
ABINGDON*      CLEAR     63  29  28 W8        30.33S
$$

MDZ021>025-VAZ099-100-240000-
SOUTHERN MARYLAND AND THE DELMARVA PENINSULA

CITY           SKY/WX    TMP DP  RH WIND       PRES   REMARKS
PATUXENT RIVER PTCLDY    39  18  42 SE10      30.55S
BAY BRIDGE APT CLEAR     41  14  33 S8        30.54F
LEONARDTOWN    CLEAR     41  14  33 SE5       30.56R
DOVER          CLEAR     42  12  29 SW6       30.53S
GEORGETOWN     CLEAR     44   8  23 SW6       30.56R
EASTON         CLEAR     43  10  26 SW6       30.58S
CAMBRIDGE      CLEAR     41   5  22 SE6       30.55F
SALISBURY      CLEAR     41  14  33 W5        30.55S
OCEAN CITY     CLEAR     36  21  54 S5        30.58R
WALLOPS ISLAND CLEAR     37  26  64 S10       30.58S
ACCOMACK*      CLEAR     39  24  55 S7        30.58S
$$

NCZ012>017-030>032-240000-
NORTH CENTRAL AND EASTERN NORTH CAROLINA

CITY           SKY/WX    TMP DP  RH WIND       PRES   REMARKS
ROANOKE RAPIDS FAIR      50  18  27 CALM      30.54S
RALEIGH        PTCLDY    53  17  24 S7        30.51S
ELIZABETH CITY CLEAR     40  24  53 E8        30.59R
AHOSKIE*         N/A     47  14  25 CALM      30.55S
EDENTON*       CLEAR     43  29  57 E6        30.58S
CURRITUCK*     CLEAR     39  24  53 E3        30.60R
KILL DEVIL HLS NOT AVBL
MANTEO         CLEAR     38  25  59 NE8       30.60R
CAPE HATTERAS  CLEAR     42  28  57 NE8       30.58S
TARBORO*       NOT AVBL
GOLDSBORO      CLEAR     52  21  29 E5        30.51F
WASHINGTON     CLEAR     47  24  40 E6        30.56S
GREENVILLE     CLEAR     50  25  37 SE6       30.54S
NEW BERN       CLEAR     47  33  58 SE9       30.57R
WILMINGTON     CLEAR     49  33  54 E10       30.55S
$$

VAZ048-240000-
ELSEWHERE

CITY           SKY/WX    TMP DP  RH WIND       PRES   REMARKS
HARRISBURG PA  PTCLDY    43  14  31 SE3       30.49S
BALTIMORE      PTCLDY    42  15  33 SE8       30.52R
ANNAPOLIS      CLEAR     41  19  41 S8        30.54S
ANDREWS AFB    CLEAR     44   8  22 SW6       30.51S
PHILADELPHIA   PTCLDY    44   6  21 W9        30.53R
HENDERSON NC   CLEAR     49  15  26 SE7       30.51S
GREENSBORO     PTCLDY    53  18  25 S7        30.46F
ROCKY MOUNT    CLEAR     51  18  27 CALM      30.54S
$$

VAZ100-240000-
MARINE

STATION/POSITION TIME  TEMP    WIND        PRES    WAVE   SWELL
                       AIR SEA DIR/SP/G            HT/PER HT/PER
                 (UTC) (F)     (DEG/KT/KT) (MB)    (FT/S) (FT/S)
CAPE MAY NJ      2248   38 43  190/  5/  7 1034.6R
LEWES DE         2248   37 43  160/  8/ 11 1034.9R
OCEAN-CITY-INLET 2248   37 43  200/  5/  7 1035.9R
WACHAPREAGUE VA  2248   38 49  190/  7/ 10 1035.5R
THOMAS POINT MD  2300   40 44  170/ 11/ 11   N/A
GOOSES REEF MD   2250   42     200/ 12/ 14 1034.9F
COVE POINT MD    2248   40     180/  9/ 10 1035.1F
SOLOMONS ISLAND  2248   40 45  140/ 10/ 12   N/A
BISHOPS HEAD MD  2248   41 49  110/  4/  5 1035.1F
PINEY POINT MD   2248          150/ 12/ 14   N/A
POTOMAC MD       2250   41     150/ 10/ 10 1034.3F
CAMBRIDGE MD     2248   42 44   80/  5/  5 1033.8F
LEWISETTA VA     2248   40 47  130/ 10/ 12 1034.5F
RAPPAHANNOCK LGT 2248          180/  4/  4 1036.0F
STINGRAY PT      2250   38     170/  8/ 10 1035.5F
YORK RVR RNG VA  2248   38     150/  9/ 10 1034.8F
YORKTOWN VA      2248   40 48  120/  8/  9 1035.0S
JAMESTOWN VA     2250   43     100/  8/ 10   N/A
DOMINION TERM VA 2248   42     110/  4/  8 1035.4F
KIPTOPEKE VA     2248      47  150/  5/  7   N/A
CHES BAY BRIDGE  2248   38 47  110/  5/  9 1035.6S
CAPE HENRY VA    2248   37     100/  6/  7   N/A
WILLOUBY STN VA  2248   38     110/  9/ 11 1036.2F
S CRANEY ISL VA  2248   40      90/  7/  8 1035.2R
CAPE HENRY BUOY  2242      46                N/A     3/ 7
CAPE CHARLES BUO 2251      46                N/A     3/ 7
OFFSHORE WE BUOY 2251      45                N/A     4/ 7   2/11
64NM E OF VA BCH 2250   39 50   20/ 10/ 14 1035.4F   5/ 7   5/ 7
DUCK PIER NC     2248   38 48   40/ 10/ 11 1035.4R
44100 DUCK FRF   2235      47                N/A     5/ 7   2/11
44056 DUCK FRF   2230      47                N/A     4/ 8   2/11
OREGON INLET NC  2248           30/  8/ 11 1035.7R
HATTERAS NC      2248   42 52   50/  9/ 11 1035.0R
DIAMOND SHLS NC  2250   47 73   20/ 14/ 17 1035.0R   9/11   8/11
CAPE LOOKOUT NC  2300   45      20/ 11/ 13 1034.8R
$$




USA.gov is the U.S. government's official web portal to all federal, state and local government web resources and services.